OPS 4682 DEB, 38367

Orbit data source: Space-Track

OPS 4682 DEB, 38367 is space debris in LEO originally from a launch on Sat, 03 Apr 1965 UTC launched from the Air Force Western Test Range (AFWTR). Debris objects in space refer to the collection of defunct objects orbiting the Earth. Examples of debris include non-operational satellites, rocket bodies, and fragments generated from explosions, collisions, or faulty payload assembly.

Loading next visibility...
Identifier
38367, 1965-027BU
Orbit
LEO
Country
Flag of USUS
Related business
Manufacturer
Unknown
Mission
Spacecraft
Bus & Motor
Unknown
Mass
Unknown
Launch date (UTC)
1965-04-03 (61 years ago)
Launch vehicle
Unknown
Launch site
Air Force Western Test Range (AFWTR)
Object type
Payload
Rocket body
Debris
Shape & HBR
Unknown shape, 0.1 m
Radar Cross Section
Medium (>0.1 m² and <1 m²)

Expand to show TLE details & history
Last TLE update: 2 days ago

TLE from 2 days ago
0 OPS 4682 DEB
1 38367U 65027BU  26149.02923230 -.00000110  00000-0 -40773-3 0  9998
2 38367  90.2449  10.3549 0034104 182.7058 177.3883 12.96705078306395
Epoch: 2026-05-29T00:42Z
TLE epoch observation values (Epoch: 2026-05-29T00:42:05.670Z)
Latitude
-0.00004°
Longitude
113.26579°
Altitude
1,303.981 km
Speed
7.192 km/s
True Right ascension
00h 41m 25s
True Declination
0° 00' 00"
Sunlit
Object was in daylight at epoch
Visualization orbit readout
Latitude
Unknown
Longitude
Unknown
Altitude
Unknown
Speed
Unknown
Apparent Right ascension
Unknown
Apparent Declination
Unknown
Sunlit
N/A
Visualization observer readout
Local Sidereal Time
09:13:59
Azimuth
Unknown
Elevation
Unknown
Doppler factor
Unknown
Orbital elements
Apogee altitude
1,298.246 km
Perigee altitude
1,246.065 km
Semi-major axis
7,650.293 km
Eccentricity
0.00341
Inclination
90.2449°
RAAN
10.3549°
Arg. of periapsis
182.7058°
True anomaly
177.40603°
Mean anomaly
177.3883°
Eccentric anomaly
177.39717°
Mean motion
3.24359 °/min
Orbital period
110.99 mins
BSTAR
-0.00040773
Loading maneuver chart data...
Computing Atmospheric mass density...
Loading historical data...
Loading historical data...
Loading historical data...
Loading historical data...
Loading historical data...
Loading historical data...
Loading historical data...

Documentation

Showing up to 5 results
|